Location: Ercé
(48.2545°N, 1.5156°W)
Time: 23:38:40
(UTC+00:00)

Daily predictions for brighter satellites

Satellite Brightness Start Highest point End
(mag) Time Altitude Azimuth Time Altitude Azimuth Time Altitude Azimuth
H-2A R/B 4.5 18:03:45 10° SSW 18:08:17 30° W 18:12:57 10° NNW
Okean O Rocket 2.5 18:06:59 10° SE 18:10:46 30° ENE 18:14:36 10° N
Cosmos 2084 3.8 18:07:44 10° SW 18:11:29 57° NW 18:15:17 10° NE
SKYMED 2 3.6 18:09:50 10° NNE 18:14:11 67° ESE 18:18:30 10° S
Nadezhda 4 Rocket 4.4 18:09:33 10° SSE 18:15:22 40° E 18:21:10 10° NNE
Cosmos 2227 Rocket 4.5 18:11:16 10° NW 18:16:06 30° WSW 18:20:54 10° SSW
Cosmos 2285 Rocket 4.2 18:14:52 10° NNW 18:21:06 54° ENE 18:27:20 10° SE
PSLV R/B 3.5 18:19:16 10° SSE 18:22:56 75° ENE 18:26:36 10° N
Cosmos 1726 2.2 18:19:55 10° S 18:23:27 49° E 18:27:00 10° NNE
Cosmos 2322 Rocket 3.4 18:19:35 10° SE 18:23:36 20° E 18:27:37 10° NE
USA 186 3.9 18:22:41 11° E 18:23:56 13° ENE 18:25:27 10° NE
Cosmos 841 Rocket 3.8 18:22:40 10° NNW 18:27:50 70° WSW 18:32:56 10° SSE
Cosmos 1470 4.1 18:25:33 10° SE 18:28:18 19° E 18:31:03 10° NE
Cosmos 1980 Rocket 2.3 18:23:33 10° SSW 18:29:12 82° WNW 18:34:51 10° NNE
CZ-4B R/B 3.2 18:23:54 10° SSE 18:29:13 64° ENE 18:34:41 10° N
Cosmos 1378 Rocket 3.5 18:24:54 10° N 18:29:18 72° E 18:33:37 10° SSE
Cosmos 1975 Rocket 4.4 18:26:53 10° NNE 18:30:13 21° ENE 18:33:08 12° ESE
Timation 2 Rocket 4.2 18:24:22 10° NNW 18:30:51 81° WSW 18:37:00 10° SSE
ARGOS Delta rocket 4.1 18:26:15 10° NNE 18:31:26 57° E 18:36:19 10° S
DMSP B5D2-2 4.2 18:26:56 10° NNE 18:32:15 86° WNW 18:37:31 10° SSW
Cosmos 2292 Rocket 4.2 18:33:44 10° SSE 18:38:17 34° E 18:41:53 10° NNE
Meteor 2-14 Rocket 4.4 18:34:06 10° S 18:40:08 75° E 18:46:12 10° NNE
Cosmos 1733 Rocket 3.6 18:38:00 10° SSW 18:42:24 63° WNW 18:46:51 10° N
Cosmos 1850 Rocket 4.3 18:37:30 10° SSW 18:42:43 72° WNW 18:48:01 10° NNE
USA 215 3.4 18:38:32 10° NE 18:45:06 79° NNW 18:51:38 10° WSW
Cosmos 2369 4.4 18:41:19 10° SW 18:46:57 59° WNW 18:52:37 10° NNE
Cosmos 2221 Rocket 4.4 18:42:51 10° NNW 18:47:18 56° W 18:51:44 10° S
COBE Rocket 3.8 18:42:32 10° SSE 18:47:23 89° E 18:52:08 10° NNW
Cosmos 1844 Rocket 3.3 18:43:54 10° NNW 18:49:11 38° NE 18:52:59 17° ESE
Cosmos 2278 3.7 18:46:55 10° SSW 18:52:37 87° ESE 18:58:20 10° NNE
SL-16 R/B 2.4 18:48:08 10° S 18:53:29 45° ESE 18:58:52 10° NE
Cosmos 1570 Rocket 3.9 18:49:28 10° NNW 18:54:45 73° ENE 18:59:58 10° SSE
Landsat 5 4.5 18:52:03 10° NE 18:55:53 27° E 18:59:40 10° SSE
Cosmos 1092 Rocket 4.2 18:50:51 10° SSE 18:56:49 46° E 19:02:45 10° NNE
Resurs 01 Rocket 3.4 19:01:19 15° ENE 19:01:19 15° ENE 19:03:43 10° NNE
DMSP B5D1-3 4.5 18:56:19 10° NNE 19:01:24 65° ESE 19:06:29 10° S
COSMO-SKYMED 1 4.0 18:58:04 10° N 19:02:10 41° WNW 19:06:14 10° SW
Meteor 2-21 Rocket 4.3 18:56:49 10° S 19:02:50 78° E 19:08:55 10° NNE
SJ-6B 3.4 19:02:07 27° ESE 19:03:15 33° ENE 19:06:41 10° N
Cosmos 2278 Rocket 4.2 19:01:11 10° N 19:03:28 12° NNE 19:05:41 10° NE
HJ-1C 3.5 19:01:23 10° S 19:04:28 66° WSW 19:07:34 10° NNW
Cosmos 1437 Rocket 2.5 19:02:03 10° S 19:05:45 68° E 19:09:29 10° NNE
H-2A R/B 4.1 19:07:11 16° NE 19:07:11 16° NE 19:09:03 10° NNE
Cosmos 2263 Rocket 3.4 19:03:01 10° NW 19:08:22 43° WSW 19:13:42 10° S
Meteor 1-24 Rocket 3.5 19:05:03 10° N 19:10:20 64° ENE 19:15:41 10° SSE
Resurs 1-3 4.3 19:11:26 29° E 19:12:25 32° ENE 19:16:21 10° N
STPSAT 2 (USA 217) 4.5 19:10:21 10° SSW 19:14:54 81° ESE 19:19:27 10° NNE
SL-4 R/B 3.1 19:10:45 10° WNW 19:15:00 45° SW 19:17:52 20° SSE
Meteor 2-16 Rocket 4.4 19:10:40 10° S 19:16:48 84° E 19:22:59 10° N
Feng Yun 1-1 Rocket 4.2 19:11:41 10° SSE 19:17:11 85° WSW 19:22:37 10° NNW
Cosmos 2084 Rocket 3.1 19:14:35 10° NW 19:18:25 80° NE 19:19:51 38° SE
USA 267 4.0 19:14:49 10° SSE 19:21:07 48° SW 19:27:26 10° WNW
ISS -0.9 19:20:17 10° WSW 19:21:53 13° SW 19:23:28 10° SSW
Okean-O 2.8 19:20:29 33° ESE 19:22:03 49° ENE 19:26:20 10° N
Cosmos 1486 Rocket 4.4 19:18:09 10° S 19:23:02 39° ESE 19:27:58 10° NE
CZ-4 R/B 1.9 19:19:12 10° S 19:23:19 61° WSW 19:27:29 10° NNW
Cosmos 2208 Rocket 4.1 19:18:00 10° NNW 19:23:26 84° WSW 19:28:16 13° SSE
Cosmos 1844 3.8 19:18:23 10° NNW 19:23:51 54° ENE 19:26:12 32° ESE
OBJECT-B 1.4 19:24:55 33° N 19:24:55 33° N 19:26:29 10° N
IGS 5A 3.5 19:24:38 38° SE 19:25:54 56° ENE 19:29:58 10° N
DNEPR-1 R/B 4.1 19:22:26 10° SSW 19:26:54 48° ESE 19:30:36 19° NE
Meteor 1-22 Rocket 4.1 19:22:43 10° S 19:28:08 80° E 19:33:49 10° NNE
Helios 1B 4.4 19:25:32 10° NNE 19:29:53 80° ESE 19:34:13 10° SSW
Cosmos 1300 Rocket 3.7 19:30:15 45° ESE 19:30:37 47° E 19:34:49 10° NNE
Cosmos 1908 Rocket 4.2 19:26:34 10° SSW 19:30:48 55° WNW 19:35:06 10° N
CSL-04 Debris 4.0 19:28:02 17° SSE 19:32:12 77° ENE 19:37:36 10° NNW
Cosmos 1428 Rocket 4.4 19:26:09 10° S 19:32:21 82° E 19:38:38 10° N
Cosmos 1627 Rocket 4.3 19:29:43 10° S 19:35:49 79° E 19:41:58 10° NNE
Cosmos 2195 Rocket 4.5 19:29:51 10° S 19:36:06 90° ENE 19:42:27 10° N
Cosmos 2360 Rocket 2.3 19:32:37 10° S 19:38:00 48° ESE 19:43:25 10° NE
Cosmos 1782 Rocket 3.5 19:34:37 10° S 19:38:57 83° W 19:43:21 10° N
USA 81 3.9 19:33:45 10° N 19:39:04 84° E 19:43:22 16° S
Cosmos 1025 Rocket 2.9 19:38:46 10° N 19:43:06 86° WSW 19:44:51 36° S
Okean O Rocket 3.3 19:43:08 10° SSW 19:47:03 32° W 19:51:02 10° NNW
Cosmos 968 Rocket 4.1 19:44:01 10° SW 19:49:11 57° WNW 19:54:22 10° NNE
Lacrosse 4 Rocket 1.2 19:46:12 10° SSW 19:50:17 82° ESE 19:50:18 82° ESE
Cosmos 2026 Rocket 3.9 19:46:19 10° S 19:52:23 82° W 19:58:30 10° N
USA 186 2.6 19:55:51 50° W 19:55:51 50° W 19:59:07 10° NNW
CSL-04 Rocket 3.7 19:55:05 26° S 19:58:09 75° WSW 20:03:36 10° NNW
ATLAS 2AS CENTAUR R/B 4.2 19:52:24 10° NW 19:58:23 26° NNE 20:01:35 19° NE
BREEZE-M R/B 4.4 19:56:55 10° WSW 19:58:03 30° WSW 19:58:03 30° WSW
MOS 1 4.4 20:01:33 53° E 20:01:50 54° ENE 20:07:21 10° N
Cosmos 1553 Rocket 3.9 19:57:26 10° N 20:03:51 84° E 20:06:34 38° SSE
Cosmos 1470 4.2 20:00:25 10° SW 20:03:59 36° WNW 20:07:34 10° N
Landsat 7 3.7 20:04:06 71° S 20:04:38 87° W 20:09:23 10° NNW
deb Chang Zheng 4 4.1 20:05:56 47° N 20:05:56 47° N 20:09:01 10° N
Cosmos 2322 Rocket 2.3 20:01:19 10° SW 20:07:01 74° WNW 20:12:46 10° NNE
SPOT 1/Viking Rocket 3.7 20:07:53 54° NE 20:07:53 54° NE 20:12:26 10° N
Cosmos 2237 4.4 20:02:10 10° SW 20:07:51 71° WNW 20:13:34 10° NNE
Cosmos 1975 Rocket 4.0 20:04:06 10° NNW 20:08:19 45° W 20:10:19 27° SSW
NOSS 3-4 (A) 4.1 20:04:02 10° NW 20:10:36 51° NE 20:12:04 45° ENE
NOSS 3-4 (C) 4.1 20:04:08 10° NW 20:10:42 51° NE 20:12:10 45° ENE
Ariane Rocket 4.0 20:16:26 35° NNE 20:16:26 35° NNE 20:19:51 10° N
NOSS 3-3 (A) 3.7 20:15:04 10° SSW 20:20:03 68° S 20:20:03 68° S
NOSS 3-3 (C) 3.8 20:15:10 10° SSW 20:19:58 64° S 20:19:58 64° S
Aureole 1 Rocket 3.9 20:17:41 10° SSW 20:25:06 77° ESE 20:30:55 10° NNE
USA 281 4.1 20:27:40 32° NE 20:27:40 32° NE 20:33:15 10° NNW
USA 215 4.1 20:24:15 25° NE 20:27:42 45° N 20:33:50 10° W
Cosmos 1844 Rocket 3.6 20:27:49 10° NW 20:33:09 42° WSW 20:34:40 35° SW
Resurs 01 Rocket 2.9 20:38:53 37° NNW 20:38:53 37° NNW 20:41:38 10° NNW
SL-16 R/B 3.7 20:32:33 10° WSW 20:37:43 36° NW 20:42:56 10° NNE
Cosmos 2315 Rocket 4.4 20:32:47 10° N 20:37:56 52° NE 20:37:56 52° NE
Terra 4.1 20:42:43 15° NNE 20:42:43 15° NNE 20:43:41 10° N
Cosmos 1943 Rocket 4.2 20:36:23 10° N 20:38:59 16° NNE 20:38:59 16° NNE
H-2A R/B 4.4 20:43:40 25° NW 20:43:40 25° NW 20:45:25 10° NNW
Cosmos 2278 Rocket 3.3 20:43:45 10° NNW 20:47:32 35° NNE 20:47:32 35° NNE
Cosmos 2266 Rocket 4.4 21:11:31 59° NNW 21:11:31 59° NNW 21:16:48 10° N
Cosmos 2333 Rocket 4.4 21:18:31 16° NNE 21:18:31 16° NNE 21:19:33 10° NNE
Cosmos 2360 Rocket 3.7 21:17:05 10° WSW 21:22:11 34° NW 21:27:18 10° NNE
ATLAS 2AS CENTAUR R/B 3.7 21:43:58 10° NW 21:49:00 41° N 21:49:00 41° N
USA 215 4.4 22:11:36 38° NNW 22:11:36 38° NNW 22:16:07 10° WNW
USA 281 4.5 22:14:33 35° NW 22:14:33 35° NW 22:18:14 10° NNW
